Погода в Избоищи

Россия / Вологодская область     58°59′07″N   35°17′01″E
темп.,
°C
ветер,
м/с
пор.,
м/с
влажн.,
%
обл.,
%
осадки,
мм/ч
давл.,
гПа
погр.,
м
15 мая, сб
сб1500:00+12вюв248987 0.0 101276
03:00+10в23965 0.0 101152
06:00+12всв2592100 0.0 1010146
09:00+18в4762100 0.0 1008712
12:00+20вюв466643 0.8 10071184
15:00+21юв466619 2.5 10051148
18:00+20ю466797 1.1 1004801
21:00+15юз238990 2.0 100342
16 мая, вс
вс1600:00+12ю269468 0.2 1004113
03:00+11ююз269865 0.5 1004136
06:00+12ююз399633 0.0 1005319
09:00+16юз477629 0.1 1005792
12:00+17юз587591 1.1 10061334
15:00+17з597559 2.8 10081214
18:00+17з378043 1.4 10091012
21:00+13зюз22945 1.8 101134
17 мая, пн
пн1700:00+11зюз22954 0.0 101229
03:00+10юз119484 0.0 101310
06:00+12ю11894 0.0 101454
09:00+18юв126640 0.0 1014433
12:00+22юв3447100 0.0 10141442
15:00+23ююв4544100 0.0 10132056
18:00+22юв465675 0.0 10121031
21:00+17вюв3117971 0.0 1011307
18 мая, вт
вт1800:00+15вюв4148774 0.1 1010387
03:00+14вюв4129575 0.7 1009339
06:00+15вюв41393100 0.0 1007400
09:00+20вюв51466100 0.0 1006668
12:00+25юв61445100 0.0 10051510
15:00+26юв6124861 0.0 10041765
18:00+24ююв51259100 0.8 10031597
21:00+18ююв51484100 4.9 1004673
19 мая, ср
ср1900:00+16ююв4138773 1.6 1004684
03:00+14ююв399695 1.6 1004359
06:00+14ю2495100 0.0 1004217
09:00+18юв2475100 0.0 1003767
12:00+20ююв466398 0.3 10021434
15:00+20ююв4874100 2.6 10011267
18:00+16ю41087100 1.5 1000748
21:00+14юз4991100 1.7 1000589